Location: Peebles
(55.6412°N, 3.1714°W)
Time: 15:17:50
(UTC+01:00)

Resurs 1-3 - Pass Details

Date: 26 September 2021
Orbit: 630 x 631 km, 97.9° (Epoch: 17 October)

Event Time Altitude Azimuth Distance (km) Brightness Sun altitude
Exits shadow 21:21:57 26° 179° (S) 1,253 4.8 -20.0°
Maximum altitude 21:24:22 68° 257° (WSW) 684 3.8 -20.3°
Drops below altitude 10° 21:28:46 10° 341° (NNW) 2,027 6.9 -20.9°
Sets 21:31:00 0° 344° (NNW) 2,940 7.7 -21.1°
